Time,TemperatureF,DewpointF,PressureIn,WindDirection,WindDirectionDegrees,WindSpeedMPH,WindSpeedGustMPH,Humidity,HourlyPrecipIn,Conditions,Clouds,dailyrainin,SoftwareType,DateUTC
2013-11-22 00:11:00,47.0,45.0,30.29,East,86,0.0,-999.0,92,-99.99,,,0.00,weatherlink.com 1.10,2013-11-22 05:11:00,
2013-11-22 00:26:00,46.7,45.0,30.29,East,86,0.0,-999.0,93,-99.99,,,0.00,weatherlink.com 1.10,2013-11-22 05:26:00,
2013-11-22 00:41:00,46.7,45.0,30.28,East,86,0.0,-999.0,93,-99.99,,,0.00,weatherlink.com 1.10,2013-11-22 05:41:00,
2013-11-22 00:56:00,46.8,45.0,30.27,East,86,0.0,-999.0,93,-99.99,,,0.00,weatherlink.com 1.10,2013-11-22 05:56:00,
2013-11-22 01:11:00,46.8,45.0,30.27,East,86,0.0,-999.0,93,-99.99,,,0.00,weatherlink.com 1.10,2013-11-22 06:11:00,
2013-11-22 01:26:00,47.0,45.0,30.26,East,86,0.0,-999.0,94,-99.99,,,0.00,weatherlink.com 1.10,2013-11-22 06:26:00,
2013-11-22 01:41:00,47.1,45.0,30.27,East,86,0.0,-999.0,93,-99.99,,,0.00,weatherlink.com 1.10,2013-11-22 06:41:00,
2013-11-22 01:56:00,47.1,45.0,30.27,East,86,0.0,-999.0,93,-99.99,,,0.00,weatherlink.com 1.10,2013-11-22 06:56:00,
2013-11-22 02:11:00,47.0,45.0,30.26,East,86,0.0,-999.0,93,-99.99,,,0.00,weatherlink.com 1.10,2013-11-22 07:11:00,
2013-11-22 02:26:00,47.0,45.0,30.26,East,86,0.0,-999.0,94,-99.99,,,0.00,weatherlink.com 1.10,2013-11-22 07:26:00,
2013-11-22 02:41:00,47.1,46.0,30.26,East,86,0.0,-999.0,94,-99.99,,,0.00,weatherlink.com 1.10,2013-11-22 07:41:00,
2013-11-22 02:56:00,47.3,46.0,30.26,East,86,0.0,-999.0,94,-99.99,,,0.00,weatherlink.com 1.10,2013-11-22 07:56:00,
2013-11-22 03:11:00,47.3,46.0,30.25,East,86,0.0,-999.0,94,-99.99,,,0.00,weatherlink.com 1.10,2013-11-22 08:11:00,
2013-11-22 03:26:00,47.4,46.0,30.25,East,86,0.0,-999.0,94,-99.99,,,0.00,weatherlink.com 1.10,2013-11-22 08:26:00,
2013-11-22 03:41:00,47.6,46.0,30.24,East,86,0.0,-999.0,94,-99.99,,,0.00,weatherlink.com 1.10,2013-11-22 08:41:00,
2013-11-22 03:56:00,47.7,46.0,30.24,East,86,0.0,-999.0,93,-99.99,,,0.00,weatherlink.com 1.10,2013-11-22 08:56:00,
2013-11-22 04:11:00,48.0,46.0,30.24,East,86,0.0,-999.0,93,-99.99,,,0.00,weatherlink.com 1.10,2013-11-22 09:11:00,
2013-11-22 04:27:00,48.3,46.0,30.23,East,86,0.0,-999.0,93,-99.99,,,0.00,weatherlink.com 1.10,2013-11-22 09:27:00,
2013-11-22 04:42:00,48.3,46.0,30.23,East,86,0.0,-999.0,92,-99.99,,,0.00,weatherlink.com 1.10,2013-11-22 09:42:00,
2013-11-22 04:57:00,48.5,46.0,30.23,East,86,0.0,-999.0,92,-99.99,,,0.00,weatherlink.com 1.10,2013-11-22 09:57:00,
2013-11-22 05:12:00,48.3,46.0,30.23,East,86,0.0,-999.0,92,-99.99,,,0.00,weatherlink.com 1.10,2013-11-22 10:12:00,
2013-11-22 05:27:00,47.7,45.0,30.22,East,86,0.0,-999.0,91,-99.99,,,0.00,weatherlink.com 1.10,2013-11-22 10:27:00,
2013-11-22 05:42:00,47.4,45.0,30.21,East,86,0.0,-999.0,92,-99.99,,,0.00,weatherlink.com 1.10,2013-11-22 10:42:00,
2013-11-22 05:57:00,47.0,45.0,30.22,East,86,0.0,-999.0,92,-99.99,,,0.00,weatherlink.com 1.10,2013-11-22 10:57:00,
2013-11-22 06:12:00,46.4,44.0,30.22,East,86,0.0,-999.0,92,-99.99,,,0.00,weatherlink.com 1.10,2013-11-22 11:12:00,
2013-11-22 06:27:00,46.1,44.0,30.22,East,86,0.0,-999.0,93,-99.99,,,0.00,weatherlink.com 1.10,2013-11-22 11:27:00,
2013-11-22 06:42:00,45.5,44.0,30.22,East,86,0.0,-999.0,93,-99.99,,,0.00,weatherlink.com 1.10,2013-11-22 11:42:00,
2013-11-22 06:57:00,45.2,44.0,30.21,East,86,0.0,-999.0,94,-99.99,,,0.00,weatherlink.com 1.10,2013-11-22 11:57:00,
2013-11-22 07:12:00,45.1,44.0,30.21,East,86,0.0,-999.0,94,-99.99,,,0.00,weatherlink.com 1.10,2013-11-22 12:12:00,
2013-11-22 07:27:00,45.1,44.0,30.21,East,86,0.0,-999.0,95,-99.99,,,0.00,weatherlink.com 1.10,2013-11-22 12:27:00,
2013-11-22 07:42:00,45.4,44.0,30.20,East,86,0.0,-999.0,94,-99.99,,,0.00,weatherlink.com 1.10,2013-11-22 12:42:00,
2013-11-22 07:57:00,47.0,45.0,30.20,East,86,0.0,-999.0,94,-99.99,,,0.00,weatherlink.com 1.10,2013-11-22 12:57:00,
2013-11-22 08:12:00,48.5,46.0,30.20,East,86,0.0,-999.0,92,-99.99,,,0.00,weatherlink.com 1.10,2013-11-22 13:12:00,
2013-11-22 08:27:00,51.4,49.0,30.21,East,86,0.0,-999.0,90,-99.99,,,0.00,weatherlink.com 1.10,2013-11-22 13:27:00,
2013-11-22 08:42:00,53.9,49.0,30.21,East,86,0.0,-999.0,84,-99.99,,,0.00,weatherlink.com 1.10,2013-11-22 13:42:00,
2013-11-22 08:57:00,54.8,49.0,30.20,East,86,0.0,-999.0,82,-99.99,,,0.00,weatherlink.com 1.10,2013-11-22 13:57:00,
2013-11-22 09:12:00,55.7,50.0,30.20,East,86,0.0,-999.0,82,-99.99,,,0.00,weatherlink.com 1.10,2013-11-22 14:12:00,
2013-11-22 09:28:00,56.5,51.0,30.20,East,86,0.0,-999.0,83,-99.99,,,0.00,weatherlink.com 1.10,2013-11-22 14:28:00,
2013-11-22 09:42:00,57.5,52.0,30.20,East,100,0.0,-999.0,82,-99.99,,,0.00,weatherlink.com 1.10,2013-11-22 14:42:00,
2013-11-22 09:57:00,58.7,53.0,30.19,ESE,103,0.0,-999.0,82,-99.99,,,0.00,weatherlink.com 1.10,2013-11-22 14:57:00,
2013-11-22 10:12:00,59.6,54.0,30.19,SE,137,0.0,-999.0,81,-99.99,,,0.00,weatherlink.com 1.10,2013-11-22 15:12:00,
2013-11-22 10:27:00,60.5,-99.9,30.19,SE,133,0.0,-999.0,-999,-99.99,,,0.00,weatherlink.com 1.10,2013-11-22 15:27:00,
2013-11-22 10:42:00,61.3,55.0,30.19,SE,133,0.0,-999.0,79,-99.99,,,0.00,weatherlink.com 1.10,2013-11-22 15:42:00,
2013-11-22 10:57:00,62.0,55.0,30.18,SE,144,0.0,-999.0,78,-99.99,,,0.00,weatherlink.com 1.10,2013-11-22 15:57:00,
2013-11-22 11:12:00,62.6,56.0,30.17,NE,48,0.0,-999.0,78,-99.99,,,0.00,weatherlink.com 1.10,2013-11-22 16:12:00,
2013-11-22 11:28:00,62.6,55.0,30.17,South,188,0.0,-999.0,77,-99.99,,,0.00,weatherlink.com 1.10,2013-11-22 16:28:00,
2013-11-22 11:43:00,62.7,55.0,30.16,South,188,0.0,-999.0,76,-99.99,,,0.00,weatherlink.com 1.10,2013-11-22 16:43:00,
2013-11-22 11:58:00,63.1,55.0,30.15,SSE,165,0.0,-999.0,76,-99.99,,,0.00,weatherlink.com 1.10,2013-11-22 16:58:00,
2013-11-22 12:13:00,63.4,56.0,30.14,SSE,165,0.0,-999.0,76,-99.99,,,0.00,weatherlink.com 1.10,2013-11-22 17:13:00,
2013-11-22 12:28:00,63.7,55.0,30.13,SSE,167,3.0,-999.0,74,-99.99,,,0.00,weatherlink.com 1.10,2013-11-22 17:28:00,
2013-11-22 12:43:00,63.9,-99.9,30.12,South,174,0.0,-999.0,-999,-99.99,,,0.00,weatherlink.com 1.10,2013-11-22 17:43:00,
2013-11-22 12:58:00,64.0,56.0,30.11,South,176,0.0,-999.0,75,-99.99,,,0.00,weatherlink.com 1.10,2013-11-22 17:58:00,
2013-11-22 13:13:00,64.7,56.0,30.10,SE,145,0.0,-999.0,74,-99.99,,,0.00,weatherlink.com 1.10,2013-11-22 18:13:00,
2013-11-22 13:28:00,65.8,56.0,30.10,SSE,168,2.0,-999.0,71,-99.99,,,0.00,weatherlink.com 1.10,2013-11-22 18:28:00,
2013-11-22 13:43:00,67.4,57.0,30.08,SE,133,0.0,-999.0,70,-99.99,,,0.00,weatherlink.com 1.10,2013-11-22 18:43:00,
2013-11-22 13:58:00,68.4,58.0,30.08,ESE,114,0.0,-999.0,69,-99.99,,,0.00,weatherlink.com 1.10,2013-11-22 18:58:00,
2013-11-22 14:13:00,68.8,58.0,30.07,ESE,121,2.0,-999.0,68,-99.99,,,0.00,weatherlink.com 1.10,2013-11-22 19:13:00,
2013-11-22 14:28:00,69.6,58.0,30.06,SSW,209,3.0,-999.0,67,-99.99,,,0.00,weatherlink.com 1.10,2013-11-22 19:28:00,
2013-11-22 14:43:00,69.6,58.0,30.06,South,171,8.0,-999.0,67,-99.99,,,0.00,weatherlink.com 1.10,2013-11-22 19:43:00,
2013-11-22 14:58:00,69.8,58.0,30.05,South,188,0.0,-999.0,66,-99.99,,,0.00,weatherlink.com 1.10,2013-11-22 19:58:00,
2013-11-22 15:13:00,69.6,58.0,30.05,South,169,1.0,-999.0,67,-99.99,,,0.00,weatherlink.com 1.10,2013-11-22 20:13:00,
2013-11-22 15:28:00,69.8,58.0,30.05,SSW,198,0.0,-999.0,66,-99.99,,,0.00,weatherlink.com 1.10,2013-11-22 20:28:00,
2013-11-22 15:43:00,70.1,59.0,30.04,SSE,152,0.0,-999.0,67,-99.99,,,0.00,weatherlink.com 1.10,2013-11-22 20:43:00,
2013-11-22 15:58:00,69.8,59.0,30.04,South,179,4.0,-999.0,68,-99.99,,,0.00,weatherlink.com 1.10,2013-11-22 20:58:00,
2013-11-22 16:13:00,68.8,59.0,30.04,SSW,199,0.0,-999.0,70,-99.99,,,0.00,weatherlink.com 1.10,2013-11-22 21:13:00,
2013-11-22 16:28:00,68.4,58.0,30.03,SE,136,0.0,-999.0,70,-99.99,,,0.00,weatherlink.com 1.10,2013-11-22 21:28:00,
2013-11-22 16:43:00,68.3,59.0,30.03,SSE,168,0.0,-999.0,71,-99.99,,,0.00,weatherlink.com 1.10,2013-11-22 21:43:00,
2013-11-22 16:58:00,67.6,58.0,30.02,SE,136,0.0,-999.0,72,-99.99,,,0.00,weatherlink.com 1.10,2013-11-22 21:58:00,
2013-11-22 17:29:00,66.8,58.0,30.02,SE,137,0.0,-999.0,74,-99.99,,,0.00,weatherlink.com 1.10,2013-11-22 22:29:00,
2013-11-22 17:44:00,66.4,59.0,30.02,SE,137,0.0,-999.0,76,-99.99,,,0.00,weatherlink.com 1.10,2013-11-22 22:44:00,
2013-11-22 17:59:00,66.1,58.0,30.01,SSE,150,0.0,-999.0,76,-99.99,,,0.00,weatherlink.com 1.10,2013-11-22 22:59:00,
2013-11-22 18:14:00,66.1,59.0,30.02,SSE,150,0.0,-999.0,77,-99.99,,,0.00,weatherlink.com 1.10,2013-11-22 23:14:00,
2013-11-22 18:29:00,66.0,59.0,30.01,South,174,0.0,-999.0,77,-99.99,,,0.00,weatherlink.com 1.10,2013-11-22 23:29:00,
2013-11-22 18:44:00,66.0,58.0,30.01,SE,127,1.0,-999.0,76,-99.99,,,0.00,weatherlink.com 1.10,2013-11-22 23:44:00,
2013-11-22 18:59:00,66.0,58.0,30.00,South,186,0.0,-999.0,75,-99.99,,,0.00,weatherlink.com 1.10,2013-11-22 23:59:00,
2013-11-22 19:14:00,66.0,58.0,30.00,SSE,155,3.0,-999.0,76,-99.99,,,0.00,weatherlink.com 1.10,2013-11-23 00:14:00,
2013-11-22 19:29:00,65.8,58.0,30.00,SE,138,0.0,-999.0,76,-99.99,,,0.00,weatherlink.com 1.10,2013-11-23 00:29:00,
2013-11-22 19:44:00,65.6,58.0,30.00,SSW,205,0.0,-999.0,77,-99.99,,,0.00,weatherlink.com 1.10,2013-11-23 00:44:00,
2013-11-22 19:59:00,65.5,58.0,30.00,SE,140,0.0,-999.0,77,-99.99,,,0.00,weatherlink.com 1.10,2013-11-23 00:59:00,
2013-11-22 20:14:00,65.5,58.0,29.99,SSE,165,0.0,-999.0,77,-99.99,,,0.00,weatherlink.com 1.10,2013-11-23 01:14:00,
2013-11-22 20:29:00,65.3,58.0,29.98,SSE,161,0.0,-999.0,78,-99.99,,,0.00,weatherlink.com 1.10,2013-11-23 01:29:00,
2013-11-22 20:44:00,65.3,58.0,29.98,South,178,0.0,-999.0,78,-99.99,,,0.00,weatherlink.com 1.10,2013-11-23 01:44:00,
2013-11-22 20:59:00,65.2,59.0,29.98,SSW,202,0.0,-999.0,79,-99.99,,,0.00,weatherlink.com 1.10,2013-11-23 01:59:00,
2013-11-22 21:14:00,64.7,59.0,29.98,SE,144,0.0,-999.0,81,-99.99,,,0.00,weatherlink.com 1.10,2013-11-23 02:14:00,
2013-11-22 21:29:00,64.3,59.0,29.98,SSE,162,0.0,-999.0,82,-99.99,,,0.00,weatherlink.com 1.10,2013-11-23 02:29:00,
2013-11-22 21:44:00,64.2,59.0,29.97,ESE,120,0.0,-999.0,83,-99.99,,,0.00,weatherlink.com 1.10,2013-11-23 02:44:00,
2013-11-22 21:59:00,64.0,59.0,29.98,SE,128,0.0,-999.0,84,-99.99,,,0.00,weatherlink.com 1.10,2013-11-23 02:59:00,
2013-11-22 22:14:00,63.5,59.0,29.97,SE,144,0.0,-999.0,85,-99.99,,,0.00,weatherlink.com 1.10,2013-11-23 03:14:00,
2013-11-22 22:29:00,63.2,59.0,29.97,SE,144,2.0,-999.0,86,-99.99,,,0.00,weatherlink.com 1.10,2013-11-23 03:29:00,
2013-11-22 22:44:00,63.1,59.0,29.97,ESE,116,0.0,-999.0,87,-99.99,,,0.01,weatherlink.com 1.10,2013-11-23 03:44:00,
2013-11-22 22:59:00,62.9,60.0,29.98,SE,138,0.0,-999.0,89,-99.99,,,0.01,weatherlink.com 1.10,2013-11-23 03:59:00,
2013-11-22 23:14:00,62.4,60.0,29.98,SE,138,0.0,-999.0,91,-99.99,,,0.02,weatherlink.com 1.10,2013-11-23 04:14:00,
2013-11-22 23:29:00,62.1,60.0,29.97,SE,138,0.0,-999.0,92,-99.99,,,0.03,weatherlink.com 1.10,2013-11-23 04:29:00,
2013-11-22 23:44:00,61.8,60.0,29.97,SE,140,0.0,-999.0,93,-99.99,,,0.03,weatherlink.com 1.10,2013-11-23 04:44:00,
2013-11-22 23:59:00,61.6,60.0,29.97,SE,140,0.0,-999.0,93,-99.99,,,0.03,weatherlink.com 1.10,2013-11-23 04:59:00,